Regional Weather Roundup
Issued by NWS

Home | Current Version | Previous Version | Text Only | Print | Product List | Glossary On
Versions: 1 2 3 4 5 6 7 8 9 10 11 12 13 14 15 16 17 18 19 20 21 22 23 24 25 26 27 28 29 30 31 32 33 34 35 36 37 38 39 40 41 42 43 44 45 46 47 48 49 50
000
ASUS44 KMEG 262010
RWRTN
TENNESSEE HOURLY STATE WEATHER ROUNDUP
NATIONAL WEATHER SERVICE MEMPHIS TN
300 PM CDT SUN JUN 26 2016

TNZ002-004-019-021-049-052-054-088>092-262100-
WEST TENNESSEE

CITY           SKY/WX    TMP DP  RH WIND       PRES   REMARKS
MEMPHIS INTL   CLOUDY    90  74  59 N6        30.07F HX  99
NWS MEMPHIS      N/A     85 N/A N/A MISG        N/A
JACKSON        CLOUDY    83  72  69 W8        30.09F
DYERSBURG      CLOUDY    84  75  74 CALM      30.07F HX  92
UNION CITY     SUNNY     88  79  74 SW3       30.06F HX 102
PARIS          SUNNY     91  73  55 W9        30.08F HX 100
LEXINGTON      MOSUNNY   91  70  49 W10       30.08S HX  97
$$

TNZ008-025-027-028-033-062-065-066-262100-
NORTH MIDDLE TENNESSEE

CITY           SKY/WX    TMP DP  RH WIND       PRES   REMARKS
NASHVILLE      CLOUDY    90  71  53 SE8       30.08F HX  96
CLARKSVILLE    MOSUNNY   93  67  42 NW10      30.06F HX  96
SMYRNA         MOSUNNY   90  70  51 NE9       30.08F THUNDER HX  95
COOKEVILLE     SUNNY     97  73  46 W6        30.09F HX 107
CROSSVILLE     CLOUDY    77  72  84 E8        30.18R
$$

TNZ061-075-076-078-094-096-097-262100-
SOUTH MIDDLE TENNESSEE

CITY           SKY/WX    TMP DP  RH WIND       PRES   REMARKS
FAYETTEVILLE   SUNNY     90  72  55 N3        30.10S HX  96
TULLAHOMA      MOSUNNY   91  70  49 W7        30.12S HX  97
WINCHESTER     MOSUNNY   93  73  52 SW9       30.11S HX 102
MCMINNVILLE      N/A     91  73  55 W6        30.11F HX 100
COLUMBIA       MOSUNNY   91  73  55 N5        30.07F HX 100
SHELBYVILLE    MOSUNNY   88  72  58 S10       30.11S HX  94
$$

TNZ017-018-042-046-047-262100-
NORTHEAST TENNESSEE

CITY           SKY/WX    TMP DP  RH WIND       PRES   REMARKS
TRI CITIES     MOSUNNY   89  64  43 S5        30.14F HX  90
ELIZABETHTON   SUNNY     90  63  40 VRB3      30.14F HX  90
$$

TNZ012-013-036-069-073-074-262100-
CENTRAL EAST TENNESSEE

CITY           SKY/WX    TMP DP  RH WIND       PRES   REMARKS
KNOXVILLE      MOSUNNY   93  68  43 VRB6      30.09F HX  97
OAK RIDGE      MOSUNNY   92  66  42 SE5       30.11F HX  94
GATLINBURG       N/A     93  66  40 N8        30.09F HX  96
MORRISTOWN     SUNNY     90  64  43 NE6       30.12F HX  91
$$

TNZ083-085-099-262100-
SOUTHEAST TENNESSEE

CITY           SKY/WX    TMP DP  RH WIND       PRES   REMARKS
CHATTANOOGA    CLOUDY    92  67  43 VRB3      30.08F THUNDER HX  95
$$

SKY/WX REPORTED AS FAIR MEANS FEW OR NO CLOUDS BELOW
12 THOUSAND FEET.





USA.gov is the U.S. government's official web portal to all federal, state and local government web resources and services.